Regional Weather Roundup
Issued by NWS Little Rock, AR

Home | Current Version | Previous Version | Graphics & Text | Print | Product List | Glossary On
Versions: 1 2 3 4 5 6 7 8 9 10 11 12 13 14 15 16 17 18 19 20 21 22 23 24 25 26 27 28 29 30 31 32 33 34 35 36 37 38 39 40 41 42 43 44 45 46 47 48 49 50
000
ASUS44 KLZK 262205
RWRLZK

WEATHER ROUNDUP FOR ARKANSAS
NATIONAL WEATHER SERVICE LITTLE ROCK AR
400 PM CST MON JAN 26 2015

NOTE: "FAIR" INDICATES FEW OR NO CLOUDS BELOW 12,000 FEET WITH NO
SIGNIFICANT WEATHER AND/OR OBSTRUCTIONS TO VISIBILITY.

ARZ001-003-010-029-262300-
NORTHWEST ARKANSAS

CITY           SKY/WX    TMP DP  RH WIND       PRES   REMARKS
FAYETTEVILLE   SUNNY     57  34  41 W13       29.99R
FORT SMITH     SUNNY     62  34  35 W9        29.99F
HARRISON       SUNNY     59  32  36 W8G17     29.93R
BENTONVILLE    SUNNY     59  32  36 W10       29.98F
ROGERS         SUNNY     58  33  39 W12       29.97F
SILOAM SPGS    SUNNY     59  34  38 W13       30.00S
HIGHFILL       SUNNY     58  33  39 W14       29.97S
SPRINGDALE     SUNNY     57  34  41 W9G17     29.99R
$$

ARZ004-005-016-262300-
NORTH CENTRAL ARKANSAS

CITY           SKY/WX    TMP DP  RH WIND       PRES   REMARKS
BATESVILLE     SUNNY     57  30  35 SW13      29.93F
FLIPPIN        SUNNY     61  32  33 W10       29.91S
MTN HOME       SUNNY     59  31  34 NW7       29.90F
$$

ARZ040-041-262300-
WEST CENTRAL ARKANSAS

CITY           SKY/WX    TMP DP  RH WIND       PRES   REMARKS
MENA           SUNNY     66  34  30 W7        30.00S
MOUNT IDA      SUNNY     68  32  26 VRB5      29.96F
$$

ARZ009-017-025-026-028-262300-
NORTHEAST ARKANSAS

CITY           SKY/WX    TMP DP  RH WIND       PRES   REMARKS
JONESBORO      MOSUNNY   49  35  58 SW16      29.92F
NEWPORT        SUNNY     55  32  41 SW12G17   29.94F
WALNUT RIDGE   MOSUNNY   52  30  43 SW15      29.90F
BLYTHEVILLE    CLOUDY    45  34  65 SW14      29.94F
NW BLYTHEVILLE PTSUNNY   50  34  53 SW10      29.94F
$$

ARZ022-023-033-042-044-262300-
CENTRAL ARKANSAS

CITY           SKY/WX    TMP DP  RH WIND       PRES   REMARKS
LITTLE ROCK    SUNNY     61  27  27 SW9       29.97F
N LITTLE ROCK  SUNNY     59  34  39 SW6       29.97F
JACKSONVILLE   SUNNY     60  31  34 W8        29.96F
SEARCY         SUNNY     57  32  38 SW10      29.97F
HOT SPRINGS    SUNNY     63  32  31 SW8       29.98F
RUSSELLVILLE   SUNNY     59  33  37 NW8       29.97F
CLINTON        FAIR      57  32  38 SW10      29.96S
$$

ARZ036-262300-
EAST ARKANSAS

CITY           SKY/WX    TMP DP  RH WIND       PRES   REMARKS
WEST MEMPHIS   SUNNY     49  34  56 SW10      29.95F
$$

ARZ050-053-066-070-073-262300-
SOUTHWEST ARKANSAS

CITY           SKY/WX    TMP DP  RH WIND       PRES   REMARKS
ARKADELPHIA    FAIR      62  38  41 SW8       30.01F
CAMDEN         SUNNY     63  28  27 MISG      30.03F
TEXARKANA      SUNNY     62  33  33 SW12      30.04S
EL DORADO      SUNNY     60  32  34 SW6       30.03F
DE QUEEN       SUNNY     64  35  34 W12       30.01F
$$

ARZ056-057-069-262300-
SOUTHEAST ARKANSAS

CITY           SKY/WX    TMP DP  RH WIND       PRES   REMARKS
PINE BLUFF     SUNNY     57  31  37 SW10      30.00F
STUTTGART      SUNNY     55  34  44 S10       30.00F
MONTICELLO     SUNNY     57  32  38 W8        30.01F

$$




USA.gov is the U.S. government's official web portal to all federal, state and local government web resources and services.